Weather in Grigoryevka

Russia / Orenburg Oblast     51°06′18″N   55°18′08″E
temp.,
°C
wind,
m/s
gust,
m/s
humid.,
%
clouds,
%
prec.,
mm/h
press.,
hPa
HPBL,
m
19 september, sun
sun1923:00+7n49575 0.0 1020236
02:00+4nw35725 0.0 1021103
05:00+3nw367351 0.0 1022115
08:00+4nw2569100 0.0 1023176
11:00+9nnw45455 0.0 10241194
14:00+12nw45325 0.0 10231486
17:00+13nw45275 0.0 10231573
20:00+9nnw333763 0.0 102423
20 september, mon
mon2023:00+7n22445 0.0 102410
02:00+5ne11505 0.0 102510
05:00+5ne22545 0.0 102510
08:00+5ene22549 0.0 102536
11:00+11ene323710 0.0 1025745
14:00+14ene222857 0.0 10241261
17:00+15ene3225100 0.0 10231278
20:00+11ene463384 0.0 102494
21 september, tue
tue2123:00+9ene4638100 0.0 102490
02:00+8e3643100 0.0 1024108
05:00+9e3640100 0.0 1024135
08:00+9e4736100 0.0 1024202
11:00+14se5726100 0.0 1024513
14:00+15se5623100 0.0 1023766
17:00+17se3523100 0.0 1022799
20:00+15ese3426100 0.0 102264
22 september, wed
wed2223:00+14se3429100 0.0 102280
02:00+13ese4728100 0.0 1022175
05:00+13sse51028100 0.0 1022365
08:00+12sse4735100 0.0 1023379
11:00+13se5929100 0.0 1023339
14:00+13sse5929100 0.0 1024411
17:00+13sse2530100 0.0 1024264
20:00+13ese3430100 0.0 102480
23 september, thu
thu2323:00+14ese3431100 0.0 102484
02:00+14ese3735100 0.0 1024199
05:00+13se3833100 0.0 1025229
08:00+13ese373296 0.0 1025212
11:00+13ese5931100 0.0 1026370
14:00+16ese5727100 0.0 10261026
17:00+18ese3629100 0.0 1025461
20:00+15ese4830100 0.0 1025129